XM-1 (ROLL)

Last updated on Sun Oct 23 2016 09:18:56 GMT+0000 (Coordinated Universal Time)

1 26761U 01018A 16297.24129388 -.00000240 00000-0 00000+0 0 9990 2 26761 0.5713 89.3287 0010751 130.3331 214.1786 0.99007647 56669

Satellite not in orbit

XM-1 (ROLL)